DW8195 Weather Reports


time (UTC)temp
C
wind
direction
speed
KPH
gust
KPH
rain 1hr
cm
rain 24hr
cm
rain mn
cm
humidity
%
barometer
mb
20260505180031 14 203 12.9 25.7 0.00 0.00 0.00 63 1010.1
20260505174531 14 203 12.9 25.7 0.00 0.00 0.00 63 1010.2
20260505173041 14 203 12.9 24.1 0.00 0.00 0.00 63 1010.2
20260505171541 14 203 9.7 20.9 0.00 0.00 0.00 62 1010.3
20260505170026 14 120 8.0 19.3 0.00 0.00 0.00 62 1010.3
20260505164525 14 131 9.7 22.5 0.00 0.00 0.00 62 1010.5
20260505163022 14 106 11.3 17.7 0.00 0.00 0.00 62 1010.6
20260505161631 14 131 12.9 20.9 0.00 0.00 0.00 62 1010.9
20260505153014 15 124 8.0 17.7 0.00 0.00 0.00 60 1011.1
20260505151510 15 203 8.0 12.9 0.00 0.00 0.00 60 1011.2
20260505124530 13 203 8.0 11.3 0.00 0.00 0.00 62 1011.8
20260505123030 13 203 6.4 9.7 0.00 0.00 0.00 60 1011.7
20260505121536 15 135 4.8 9.7 0.00 0.00 0.00 58 1011.6
20260505120121 16 203 3.2 6.4 0.00 0.00 0.00 56 1011.6
20260505120004 16 203 3.2 6.4 0.00 0.00 0.00 56 1011.6
20260505114601 16 203 0.0 8.0 0.00 0.00 0.00 59 1011.6
20260505113056 16 203 3.2 9.7 0.00 0.00 0.00 59 1011.7
20260505111557 16 203 4.8 11.3 0.00 0.00 0.00 59 1011.7
20260505101554 16 203 9.7 16.1 0.00 0.00 0.00 60 1010.7
20260505100052 16 203 8.0 19.3 0.00 0.00 0.00 60 1010.5
20260505094552 16 203 9.7 16.1 0.00 0.00 0.00 60 1010.4
20260505093052 15 203 9.7 17.7 0.00 0.00 0.00 60 1010.4
20260505091549 15 203 6.4 14.5 0.00 0.00 0.00 60 1010.5
20260505090051 15 203 4.8 11.3 0.00 0.00 0.00 61 1010.3
20260505084547 13 203 4.8 11.3 0.00 0.00 0.00 63 1010.6
20260505083049 12 203 0.0 9.7 0.00 0.00 0.00 66 1010.5
20260505081545 11 203 0.0 0.0 0.00 0.00 0.00 65 1010.6
20260505080044 11 203 0.0 0.0 0.00 0.00 0.00 65 1010.7
20260505074543 11 203 0.0 0.0 0.00 0.00 0.00 65 1010.7
20260505073058 12 203 0.0 0.0 0.00 0.00 0.00 64 1010.4
20260505071541 12 203 0.0 0.0 0.00 0.00 0.00 63 1010.4
20260505070040 13 203 0.0 0.0 0.00 0.00 0.00 64 1010.4
20260505064543 13 203 0.0 12.9 0.00 0.00 0.00 64 1010.5
20260505063038 12 203 3.2 8.0 0.00 0.00 0.00 66 1010.4
20260505061548 12 203 0.0 0.0 0.00 0.00 0.00 67 1010.6
20260505060036 11 203 0.0 0.0 0.00 0.00 0.00 66 1010.5
20260505054557 11 203 0.0 0.0 0.00 0.00 0.00 66 1010.6
20260505053035 11 203 3.2 8.0 0.00 0.00 0.00 66 1010.7
20260505051533 11 203 1.6 6.4 0.00 0.00 0.00 65 1010.9
20260505041521 12 131 3.2 8.0 0.00 0.00 0.00 64 1011.2
20260505040020 12 123 0.0 8.0 0.00 0.00 0.00 63 1011.3
20260505034522 12 203 0.0 4.8 0.00 0.00 0.00 62 1011.3
20260505033049 13 203 1.6 4.8 0.00 0.00 0.00 62 1011.2
20260505031602 13 203 3.2 8.0 0.00 0.00 0.00 60 1011.4
20260505030043 13 203 0.0 4.8 0.00 0.00 0.00 59 1011.4
20260505024543 14 203 3.2 6.4 0.00 0.00 0.00 58 1011.5
20260505023041 13 203 0.0 3.2 0.00 0.00 0.00 58 1011.7
20260505021542 13 203 0.0 4.8 0.00 0.00 0.00 58 1011.7
20260505020041 14 203 0.0 3.2 0.00 0.00 0.00 58 1011.7
20260505014539 14 203 0.0 6.4 0.00 0.00 0.00 58 1011.6
20260505013038 15 203 3.2 6.4 0.00 0.00 0.00 56 1011.5
20260505011538 15 203 1.6 6.4 0.00 0.00 0.00 56 1011.4
20260505010037 15 203 0.0 6.4 0.00 0.00 0.00 54 1011.1
20260505004545 15 203 1.6 8.0 0.00 0.00 0.00 55 1010.9
20260505003034 13 203 0.0 3.2 0.00 0.00 0.00 59 1010.9
20260505001534 13 203 1.6 9.7 0.00 0.00 0.00 60 1010.6
20260505000054 13 203 0.0 9.7 0.00 0.00 0.00 60 1010.3
20260504234531 13 203 1.6 9.7 0.00 0.00 0.00 60 1010.3
20260504233031 14 203 6.4 11.3 0.00 0.00 0.00 59 1010.1
20260504231531 15 203 3.2 9.7 0.00 0.00 0.00 59 1010.0
20260504230030 14 72 1.6 11.3 0.00 0.00 0.00 61 1009.9
20260504224527 13 203 3.2 14.5 0.00 0.00 0.00 61 1009.9
20260504223027 14 137 8.0 19.3 0.00 0.00 0.00 61 1009.9
20260504221527 13 131 6.4 20.9 0.00 0.00 0.00 61 1009.9
20260504220026 13 203 6.4 22.5 0.00 0.00 0.00 61 1010.0
20260504214559 14 203 6.4 20.9 0.00 0.00 0.00 60 1010.1
20260504213055 13 203 8.0 20.9 0.00 0.00 0.00 61 1010.3
20260504211552 13 350 11.3 22.5 0.00 0.00 0.00 61 1010.2
20260504210053 14 203 9.7 20.9 0.00 0.00 0.00 59 1010.3
20260504204549 14 122 9.7 24.1 0.00 0.00 0.00 59 1010.1
20260504203059 13 203 11.3 22.5 0.00 0.00 0.00 59 1010.0
20260504201515 14 203 9.7 22.5 0.00 0.00 0.00 58 1010.2
20260504200013 14 203 11.3 22.5 0.00 0.00 0.00 58 1010.3
20260504194507 14 134 8.0 24.1 0.00 0.00 0.00 58 1010.4
20260504193008 15 203 9.7 27.4 0.00 0.00 0.00 57 1010.4
20260504191504 15 131 4.8 17.7 0.00 0.00 0.00 55 1010.9
20260504190002 16 21 3.2 17.7 0.00 0.00 0.00 55 1011.1
20260504184558 16 126 9.7 19.3 0.00 0.00 0.00 53 1011.1
20260504183102 18 203 3.2 17.7 0.00 0.00 0.00 46 1011.3
20260504181557 19 203 4.8 16.1 0.00 0.00 0.00 39 1011.5